Broken Bow, NE

10:00 AM CST on February 14, 2016 (GMT -0600)
Broken Bow Municipal

Weather History for KBBW - February, 2014

Change the Weather History Date:

Sunday, February 2, 2014

  Actual Average Record
Temperature  
Mean Temperature 8 °F 26 °F  
Max Temperature 27 °F 38 °F 70 °F (1962)
Min Temperature -11 °F 13 °F -22 °F (1902)
Degree Days  
Heating Degree Days 57 39  
Month to date heating degree days 115 78  
Cooling Degree Days 0 0  
Month to date cooling degree days 0 0  
Year to date cooling degree days 0 0  
Moisture  
Dew Point 2 °F    
Average Humidity 81    
Maximum Humidity 100    
Minimum Humidity 62    
Precipitation  
Precipitation 0.00 in 0.02 in 0.45 in (1919)
Sea Level Pressure  
Sea Level Pressure 30.32 in    
Wind  
Wind Speed 4 mph (SW)    
Max Wind Speed 18 mph    
Max Gust Speed 22 mph    
Visibility 10 miles    
Events      
T = Trace of Precipitation, MM = Missing Value Source: NWS Daily Summary

Daily Weather History Graph

Daily Weather History Graph

Search for Another Location

Airport or City:

Trip Planner

Search our weather history database for the weather conditions in past years. The results will help you decide how hot, cold, wet, or windy it might be!

Date:

Astronomy

Feb. 02, 2014 Rise Set
Actual Time 7:49 AM CST 5:56 PM CST
Civil Twilight 7:19 AM CST 6:25 PM CST
Nautical Twilight 6:46 AM CST 6:58 PM CST
Astronomical Twilight 6:14 AM CST 7:30 PM CST
Moon 9:13 AM CST (2/2) 9:45 PM CST (2/2)
Length of Visible Light 11h 05m
Length of Day
10h 07m
Waxing Crescent, 11% of the Moon is Illuminated
Feb 2
Waxing Crescent
Feb 6
First Quarter
Feb 14
Full
Feb 22
Last Quarter
Mar 1
New

Hourly Weather History & Observations

Time (CST) Temp. Windchill Dew Point Humidity Pressure Visibility Wind Dir Wind Speed Gust Speed Precip Events Conditions
12:53 AM -5.1 °F - -9.9 °F 80% 30.38 in 10.0 mi Calm Calm - N/A   Clear
1:53 AM -6.0 °F - -9.0 °F 87% 30.36 in 10.0 mi Calm Calm - N/A   Clear
2:53 AM -8.0 °F - -11.9 °F 83% 30.38 in 10.0 mi Calm Calm - N/A   Clear
3:53 AM -9.0 °F - -13.0 °F 83% 30.37 in 10.0 mi Calm Calm - N/A   Clear
4:53 AM -9.0 °F - -13.0 °F 83% 30.38 in 10.0 mi Calm Calm - N/A   Clear
5:53 AM -9.0 °F - -14.1 °F 79% 30.37 in 10.0 mi Calm Calm - N/A   Clear
6:53 AM -9.9 °F -21.5 °F -14.1 °F 82% 30.36 in 10.0 mi NNW 4.6 mph - N/A   Clear
7:53 AM -9.9 °F - -14.1 °F 82% 30.38 in 10.0 mi Calm Calm - N/A   Clear
8:53 AM -7.1 °F - -8.0 °F 96% 30.40 in 10.0 mi Calm Calm - N/A   Clear
9:53 AM 3.0 °F - 1.0 °F 91% 30.39 in 10.0 mi Calm Calm - N/A   Clear
10:53 AM 12.9 °F 3.8 °F 8.1 °F 81% 30.37 in 10.0 mi WSW 5.8 mph - N/A   Clear
11:53 AM 18.0 °F 3.6 °F 12.0 °F 78% 30.35 in 10.0 mi SSW 15.0 mph - N/A   Clear
12:53 PM 21.9 °F 9.2 °F 14.0 °F 72% 30.31 in 10.0 mi SW 13.8 mph - N/A   Clear
1:53 PM 24.1 °F 12.0 °F 14.0 °F 65% 30.28 in 10.0 mi SW 13.8 mph - N/A   Clear
2:53 PM 25.0 °F 14.2 °F 15.1 °F 66% 30.26 in 10.0 mi SW 11.5 mph - N/A   Clear
3:53 PM 26.1 °F 17.6 °F 16.0 °F 66% 30.24 in 10.0 mi SSW 8.1 mph - N/A   Clear
4:53 PM 26.1 °F 16.8 °F 16.0 °F 66% 30.24 in 10.0 mi SSW 9.2 mph - N/A   Clear
5:53 PM 21.0 °F 10.6 °F 15.1 °F 78% 30.25 in 10.0 mi SSW 9.2 mph - N/A   Clear
6:53 PM 18.0 °F 7.7 °F 12.0 °F 78% 30.27 in 10.0 mi SSW 8.1 mph - N/A   Clear
7:53 PM 12.0 °F - 8.1 °F 84% 30.28 in 10.0 mi Calm Calm - N/A   Clear
8:53 PM 14.0 °F 8.2 °F 10.9 °F 88% 30.27 in 10.0 mi South 3.5 mph - N/A   Clear
9:53 PM 12.9 °F - 10.9 °F 92% 30.25 in 10.0 mi Calm Calm - N/A   Clear
10:53 PM 6.1 °F - 3.9 °F 91% 30.25 in 9.0 mi Calm Calm - N/A   Clear
11:53 PM 8.1 °F - 6.1 °F 92% 30.25 in 10.0 mi Calm Calm - N/A   Clear